Regional Weather Roundup
Issued by NWS

Home | Current Version | Previous Version | Text Only | Print | Product List | Glossary Off
Versions: 1 2 3 4 5 6 7 8 9 10 11 12 13 14 15 16 17 18 19 20 21 22 23 24 25 26 27 28 29 30 31 32 33 34 35 36 37 38 39 40 41 42 43 44 45 46 47

000
ASUS45 KBOU 230407
RWRCO

WEATHER ROUNDUP FOR COLORADO
NATIONAL WEATHER SERVICE DENVER/BOULDER CO
1000 PM MDT TUE JUL 22 2014

NOTE: "FAIR" INDICATES FEW OR NO CLOUDS BELOW 12000 FEET WITH NO
SIGNIFICANT WEATHER AND/OR OBSTRUCTIONS TO VISIBILITY.

COZ001>005-013-030-031-230500-
...NORTHWEST COLORADO...

CITY           SKY/WX    TMP DP  RH WIND       PRES   REMARKS
CRAIG          CLEAR     62  41  46 SE3       30.32R
HAYDEN         CLEAR     66  30  26 S5        30.35S
MEEKER         CLEAR     70  32  24 CALM      30.33R
MOUNT WERNER   NOT AVBL
STEAMBOAT SPGS CLEAR     66  39  37 CALM      30.39R
WALDEN         CLEAR     63  39  42 SE9       30.51R
$$

COZ006>008-011-230500-
...WEST CENTRAL VALLEYS...

CITY           SKY/WX    TMP DP  RH WIND       PRES   REMARKS
GRAND JUNCTION CLEAR     78  18  10 N5        30.14R
MONTROSE       PTCLDY    79  41  25 S6        30.26R
EAGLE          CLEAR     73  36  25 E5        30.38R
RIFLE          CLEAR     77  22  13 S6        30.23R
DELTA          PTCLDY    87  26  11 E9        30.19R
NUCLA          PTCLDY    81  21  11 CALM      30.29R
$$

COZ017>023-064>068-230500-
...SOUTHWEST COLORADO...

CITY           SKY/WX    TMP DP  RH WIND       PRES   REMARKS
DURANGO        CLOUDY    81  38  21 MISG      30.41R
CORTEZ         CLEAR     76  37  24 NE12      30.27R
PAGOSA SPRINGS CLOUDY    74  36  24 NE6       30.50R
TELLURIDE      MOCLDY    72  32  23 NE3       30.57R
WOLF CREEK PAS NOT AVBL
$$

COZ009-010-012-014-032>034-037-058>063-230500-
...CENTRAL COLORADO...

CITY           SKY/WX    TMP DP  RH WIND       PRES   REMARKS
ASPEN          PTCLDY    63  37  38 VRB3      30.46R
BUENA VISTA    PTCLDY    64  46  52 S7        30.60R
COPPER MTN     MOCLDY    59  32  36 S18       30.88R
BERTHOUD PASS  FAIR      48  34  57 SE20      30.95R
COTTONWOOD PAS PTCLDY    63  37  39 CALM      30.75S THUNDER
GUNNISON       PTCLDY    73  37  27 E15       30.48R
KREMMLING      CLEAR     66  32  28 W3        30.47R
LEADVILLE      PTCLDY    58  39  49 S6        30.71R
MONARCH PASS   MOCLDY    55  37  50 E23       30.97S
SALIDA         MOCLDY    73  40  30 N21G28    30.61R
SUNLIGHT       CLEAR     64  25  22 NE3       30.76R
WILKERSON PASS CLOUDY    55  32  41 NW7G26    30.88R
$$

COZ069>075-230500-
...SAN LUIS VALLEY/SANGRE DE CRISTO MOUNTAINS...

CITY           SKY/WX    TMP DP  RH WIND       PRES   REMARKS
ALAMOSA        CLEAR     68  44  42 VRB3      30.49R
LA VETA PASS   CLEAR     61  34  36 E14G24    30.73R
SAGUACHE       CLEAR     72  41  33 SW16      30.52R
$$

COZ035-036-038>040-230500-
...NORTHERN COLORADO FRONT RANGE...

CITY           SKY/WX    TMP DP  RH WIND       PRES   REMARKS
DENVER INTL AP PTCLDY    79  51  37 S9        30.31R
DMNS CITY PARK   N/A     77  47  34 S5        30.31R
AURORA         PTCLDY    77  47  35 S6        30.35R
FRONT RANGE AP NOT AVBL
ERIE MUNI ARPT PTCLDY    78  55  44 CALM      30.28R
BOULDER MUN AP PTCLDY    79  52  38 W7        30.30R
CENTENNIAL     MOCLDY    76  42  29 S6        30.36R
BROOMFIELD     NOT AVBL
FORT COLLINS   CLEAR     79  55  44 N3        30.29R
LONGMONT       CLEAR     80  56  44 N7        30.29S
$$

COZ041-046-047-076>085-087-088-230500-
...PIKES PEAK/PALMER DIVIDE AND SOUTHERN FOOTHILLS...

CITY           SKY/WX    TMP DP  RH WIND       PRES   REMARKS
COLO. SPRINGS  PTCLDY    75  52  44 CALM      30.41R
A. F. ACADEMY  PTCLDY    68  51  56 N6        30.43R
ELLICOTT       PTCLDY    70  53  54 S7        30.39R
FALCON         PTCLDY    70  52  51 S6        30.47R
FORT CARSON    CLEAR     76  50  39 SW8       30.37R
LIMON          PTCLDY    76  56  49 E10       30.33R
MONUMENT HILL  MOCLDY    66  46  48 S7        30.46R
TRINIDAD       CLEAR     75  47  36 S8        30.34R
$$

COZ042>045-048>051-090-091-230500-
...NORTHEAST COLORADO...

CITY           SKY/WX    TMP DP  RH WIND       PRES   REMARKS
GREELEY ARPT   CLEAR     77  57  50 E7        30.27R
AKRON          CLEAR     74  60  61 E10       30.28R
BURLINGTON     CLEAR     79  61  53 SE10      30.25R
WRAY             N/A     79  63  56 E8        30.24R
STERLING       CLEAR     81  64  57 SE7       30.23R
HOLYOKE        PTCLDY    77  63  61 E10       30.26R
FORT MORGAN    CLEAR     74  59  58 E8        30.27R
$$

COZ086-089-092>099-230500-
...SOUTHEAST COLORADO...

CITY           SKY/WX    TMP DP  RH WIND       PRES   REMARKS
PUEBLO         CLEAR     79  55  43 E3        30.26R
LA JUNTA       CLEAR     82  57  42 E12       30.21R
LAMAR          PTCLDY    82  62  50 S15       30.17R
SPRINGFIELD      N/A     73  61  65 S12       30.26R
$$


USA.gov is the U.S. government's official web portal to all federal, state and local government web resources and services.